{"data":{"norad_id":55398,"intl_designator":"2023-014H","name":"STARLINK-5275","alt_names":[],"object_type":"PAYLOAD","status":"ACTIVE","operator":null,"country":"US","launch_date":"2023-01-31","launch_site_code":"AFWTR","launch_vehicle":null,"mission":null,"orbit_class":"UNKNOWN","rcs_meters":null,"size_class":null,"mass_kg":null,"dimensions":null,"purposes":["comms"],"wikipedia_slug":null,"has_3d_model":false,"image_url":null,"decayed_at":null,"tle_current":{"epoch":"2026-05-24T15:28:04.665216Z","epoch_age_seconds":102943,"freshness":"FRESH","line1":"1 55398U 23014H   26144.64449844 -.00000019  00000+0  61823-5 0  9995","line2":"2 55398  69.9993 232.9059 0003301 269.0161  91.0620 14.98329266183436","mean_motion":14.98329266,"eccentricity":0.0003301,"inclination_deg":69.9993,"raan_deg":232.9059,"arg_perigee_deg":269.0161,"mean_anomaly_deg":91.062,"bstar":6.1823e-6,"rev_number":18343,"period_min":96.107046206491,"perigee_km":569.76390135722,"apogee_km":574.35242020237,"semimajor_km":6950.1951607798,"source":"CELESTRAK","updated_at":"2026-05-25T13:38:17.793050Z"}}}